| time (UTC) | temp F | wind direction | speed MPH | gust MPH | rain 1hr in | rain 24hr in | rain mn in | humidity % | barometer mb |
| 20260506091525 | 75 | 155 | 3.0 | 4.0 | 0.00 | 0.00 | 0.00 | 86 | 1013.1 |
| 20260506090532 | 75 | 133 | 3.0 | 4.0 | 0.00 | 0.00 | 0.00 | 85 | 1013.2 |
| 20260506085543 | 74 | 159 | 3.0 | 5.0 | 0.00 | 0.00 | 0.00 | 85 | 1013.2 |
| 20260506084529 | 74 | 157 | 3.0 | 4.0 | 0.00 | 0.00 | 0.00 | 85 | 1013.3 |
| 20260506083537 | 74 | 162 | 3.0 | 4.0 | 0.00 | 0.00 | 0.00 | 85 | 1013.3 |
| 20260506082527 | 74 | 162 | 4.0 | 6.0 | 0.00 | 0.00 | 0.00 | 85 | 1013.2 |
| 20260506081535 | 74 | 160 | 4.0 | 7.0 | 0.00 | 0.00 | 0.00 | 85 | 1013.1 |
| 20260506080524 | 74 | 152 | 4.0 | 5.0 | 0.00 | 0.00 | 0.00 | 85 | 1013.0 |
| 20260506072537 | 74 | 157 | 5.0 | 8.0 | 0.00 | 0.00 | 0.00 | 85 | 1013.2 |
| 20260506071527 | 74 | 132 | 5.0 | 7.0 | 0.00 | 0.00 | 0.00 | 85 | 1013.2 |
| 20260506070806 | 0 | 158 | 7.0 | 7.0 | 0.00 | 0.00 | 0.00 | 1013.2 | |
| 20260506070536 | 74 | 158 | 5.0 | 8.0 | 0.00 | 0.00 | 0.00 | 85 | 1013.2 |
| 20260506061538 | 74 | 150 | 6.0 | 10.0 | 0.00 | 0.00 | 0.00 | 85 | 1013.5 |
| 20260506060526 | 74 | 157 | 5.0 | 10.0 | 0.00 | 0.00 | 0.00 | 85 | 1013.5 |
| 20260506050536 | 74 | 156 | 6.0 | 10.0 | 0.00 | 0.00 | 0.00 | 84 | 1013.6 |
| 20260506044555 | 74 | 139 | 6.0 | 8.0 | 0.00 | 0.00 | 0.00 | 84 | 1013.8 |
| 20260506043523 | 74 | 158 | 6.0 | 9.0 | 0.00 | 0.00 | 0.00 | 84 | 1013.9 |
| 20260506042531 | 75 | 159 | 7.0 | 12.0 | 0.00 | 0.00 | 0.00 | 84 | 1013.9 |
| 20260506041521 | 75 | 146 | 6.0 | 10.0 | 0.00 | 0.00 | 0.00 | 84 | 1013.9 |
| 20260506040528 | 75 | 143 | 5.0 | 7.0 | 0.00 | 0.00 | 0.00 | 84 | 1013.9 |
| 20260506035536 | 75 | 145 | 5.0 | 8.0 | 0.00 | 0.00 | 0.00 | 83 | 1014.0 |
| 20260506034526 | 75 | 169 | 6.0 | 10.0 | 0.00 | 0.00 | 0.00 | 83 | 1014.0 |
| 20260506033534 | 75 | 144 | 6.0 | 9.0 | 0.00 | 0.00 | 0.00 | 82 | 1013.9 |
| 20260506032522 | 75 | 157 | 5.0 | 9.0 | 0.00 | 0.00 | 0.00 | 82 | 1014.0 |
| 20260506031530 | 75 | 164 | 7.0 | 10.0 | 0.00 | 0.00 | 0.00 | 81 | 1014.0 |
| 20260506030519 | 75 | 153 | 7.0 | 11.0 | 0.00 | 0.00 | 0.00 | 81 | 1014.0 |
| 20260506025609 | 75 | 137 | 5.0 | 8.0 | 0.00 | 0.00 | 0.00 | 81 | 1013.9 |
| 20260506024535 | 75 | 139 | 6.0 | 8.0 | 0.00 | 0.00 | 0.00 | 81 | 1013.9 |
| 20260506023524 | 76 | 138 | 6.0 | 8.0 | 0.00 | 0.00 | 0.00 | 80 | 1013.8 |
| 20260506022532 | 76 | 150 | 5.0 | 7.0 | 0.00 | 0.00 | 0.00 | 79 | 1013.8 |
| 20260506021521 | 76 | 162 | 5.0 | 7.0 | 0.00 | 0.00 | 0.00 | 79 | 1013.6 |
| 20260506020529 | 76 | 163 | 4.0 | 6.0 | 0.00 | 0.00 | 0.00 | 78 | 1013.5 |
| 20260506015538 | 76 | 165 | 4.0 | 7.0 | 0.00 | 0.00 | 0.00 | 76 | 1013.5 |
| 20260506014527 | 77 | 148 | 5.0 | 7.0 | 0.00 | 0.00 | 0.00 | 76 | 1013.3 |
| 20260506013535 | 77 | 139 | 4.0 | 7.0 | 0.00 | 0.00 | 0.00 | 76 | 1013.3 |
| 20260506012545 | 77 | 180 | 4.0 | 7.0 | 0.00 | 0.00 | 0.00 | 76 | 1013.3 |
| 20260506011553 | 77 | 139 | 5.0 | 7.0 | 0.00 | 0.00 | 0.00 | 76 | 1013.3 |
| 20260506010541 | 77 | 150 | 5.0 | 7.0 | 0.00 | 0.00 | 0.00 | 75 | 1013.3 |
| 20260506005529 | 77 | 140 | 6.0 | 11.0 | 0.00 | 0.00 | 0.00 | 75 | 1013.5 |
| 20260506004537 | 78 | 145 | 5.0 | 8.0 | 0.00 | 0.00 | 0.00 | 74 | 1013.3 |
| 20260506003527 | 78 | 167 | 6.0 | 9.0 | 0.00 | 0.00 | 0.00 | 73 | 1013.3 |
| 20260506002535 | 78 | 150 | 6.0 | 9.0 | 0.00 | 0.00 | 0.00 | 72 | 1013.4 |
| 20260506001525 | 78 | 184 | 6.0 | 8.0 | 0.00 | 0.00 | 0.00 | 71 | 1013.3 |
| 20260506000532 | 79 | 134 | 5.0 | 7.0 | 0.00 | 0.00 | 0.00 | 70 | 1013.2 |
| 20260505235521 | 79 | 160 | 6.0 | 10.0 | 0.00 | 0.00 | 0.00 | 69 | 1013.2 |
| 20260505234529 | 79 | 171 | 6.0 | 11.0 | 0.00 | 0.00 | 0.00 | 69 | 1013.3 |
| 20260505233537 | 79 | 149 | 6.0 | 9.0 | 0.00 | 0.00 | 0.00 | 69 | 1013.3 |
| 20260505232526 | 80 | 159 | 6.0 | 9.0 | 0.00 | 0.00 | 0.00 | 69 | 1013.3 |
| 20260505231536 | 80 | 144 | 6.0 | 11.0 | 0.00 | 0.00 | 0.00 | 68 | 1013.3 |
| 20260505230523 | 80 | 158 | 7.0 | 11.0 | 0.00 | 0.00 | 0.00 | 67 | 1013.4 |
| 20260505225531 | 81 | 166 | 7.0 | 10.0 | 0.00 | 0.00 | 0.00 | 67 | 1013.3 |
| 20260505224521 | 81 | 157 | 7.0 | 13.0 | 0.00 | 0.00 | 0.00 | 66 | 1013.3 |
| 20260505223529 | 81 | 150 | 7.0 | 11.0 | 0.00 | 0.00 | 0.00 | 66 | 1013.3 |
| 20260505222538 | 82 | 178 | 8.0 | 11.0 | 0.00 | 0.00 | 0.00 | 65 | 1013.1 |
| 20260505221526 | 82 | 137 | 8.0 | 12.0 | 0.00 | 0.00 | 0.00 | 66 | 1013.1 |
| 20260505220537 | 82 | 166 | 8.0 | 12.0 | 0.00 | 0.00 | 0.00 | 66 | 1013.2 |
| 20260505215523 | 83 | 181 | 9.0 | 12.0 | 0.00 | 0.00 | 0.00 | 65 | 1013.2 |
| 20260505214631 | 83 | 153 | 8.0 | 12.0 | 0.00 | 0.00 | 0.00 | 65 | 1013.2 |
| 20260505213521 | 83 | 166 | 9.0 | 15.0 | 0.00 | 0.00 | 0.00 | 64 | 1013.3 |
| 20260505212528 | 84 | 167 | 6.0 | 12.0 | 0.00 | 0.00 | 0.00 | 64 | 1013.3 |
| 20260505211537 | 83 | 161 | 7.0 | 12.0 | 0.00 | 0.00 | 0.00 | 65 | 1013.5 |
| 20260505210526 | 83 | 153 | 8.0 | 11.0 | 0.00 | 0.00 | 0.00 | 64 | 1013.6 |
| 20260505205533 | 83 | 160 | 7.0 | 12.0 | 0.00 | 0.00 | 0.00 | 64 | 1013.6 |
| 20260505204522 | 83 | 151 | 5.0 | 11.0 | 0.00 | 0.00 | 0.00 | 63 | 1013.5 |
| 20260505203530 | 84 | 165 | 7.0 | 10.0 | 0.00 | 0.00 | 0.00 | 62 | 1013.5 |
| 20260505202520 | 85 | 190 | 6.0 | 9.0 | 0.00 | 0.00 | 0.00 | 60 | 1013.4 |
| 20260505201528 | 85 | 153 | 6.0 | 10.0 | 0.00 | 0.00 | 0.00 | 60 | 1013.5 |
| 20260505200536 | 85 | 176 | 5.0 | 8.0 | 0.00 | 0.00 | 0.00 | 58 | 1013.5 |
| 20260505195525 | 85 | 182 | 5.0 | 9.0 | 0.00 | 0.00 | 0.00 | 57 | 1013.6 |
| 20260505194552 | 85 | 190 | 7.0 | 11.0 | 0.00 | 0.00 | 0.00 | 56 | 1013.6 |
| 20260505193545 | 84 | 164 | 6.0 | 12.0 | 0.00 | 0.00 | 0.00 | 59 | 1013.6 |
| 20260505192530 | 85 | 159 | 5.0 | 7.0 | 0.00 | 0.00 | 0.00 | 57 | 1013.8 |
| 20260505191537 | 85 | 170 | 5.0 | 9.0 | 0.00 | 0.00 | 0.00 | 58 | 1014.0 |
| 20260505190527 | 85 | 157 | 6.0 | 10.0 | 0.00 | 0.00 | 0.00 | 58 | 1014.2 |
| 20260505185535 | 84 | 158 | 7.0 | 11.0 | 0.00 | 0.00 | 0.00 | 59 | 1014.3 |
| 20260505184524 | 85 | 178 | 6.0 | 8.0 | 0.00 | 0.00 | 0.00 | 57 | 1014.4 |
| 20260505183533 | 85 | 196 | 6.0 | 9.0 | 0.00 | 0.00 | 0.00 | 57 | 1014.6 |
| 20260505182541 | 84 | 167 | 8.0 | 11.0 | 0.00 | 0.00 | 0.00 | 58 | 1014.6 |
| 20260505181529 | 84 | 141 | 6.0 | 8.0 | 0.00 | 0.00 | 0.00 | 59 | 1014.7 |
| 20260505180537 | 84 | 161 | 7.0 | 11.0 | 0.00 | 0.00 | 0.00 | 59 | 1014.7 |
| 20260505175526 | 84 | 161 | 6.0 | 9.0 | 0.00 | 0.00 | 0.00 | 59 | 1014.7 |
| 20260505174537 | 84 | 170 | 6.0 | 9.0 | 0.00 | 0.00 | 0.00 | 60 | 1014.7 |
| 20260505173523 | 82 | 155 | 6.0 | 10.0 | 0.00 | 0.00 | 0.00 | 61 | 1014.8 |
| 20260505172551 | 83 | 143 | 6.0 | 8.0 | 0.00 | 0.00 | 0.00 | 60 | 1014.8 |
| 20260505171520 | 83 | 156 | 5.0 | 9.0 | 0.00 | 0.00 | 0.00 | 61 | 1014.9 |
| 20260505170528 | 83 | 156 | 6.0 | 9.0 | 0.00 | 0.00 | 0.00 | 60 | 1014.8 |
| 20260505165538 | 82 | 165 | 6.0 | 10.0 | 0.00 | 0.00 | 0.00 | 61 | 1014.8 |
| 20260505164526 | 82 | 183 | 5.0 | 8.0 | 0.00 | 0.00 | 0.00 | 61 | 1014.7 |
| 20260505163533 | 82 | 168 | 7.0 | 12.0 | 0.00 | 0.00 | 0.00 | 60 | 1014.9 |
| 20260505162522 | 82 | 189 | 5.0 | 9.0 | 0.00 | 0.00 | 0.00 | 60 | 1014.8 |
| 20260505161530 | 82 | 170 | 6.0 | 10.0 | 0.00 | 0.00 | 0.00 | 61 | 1014.8 |
| 20260505160519 | 81 | 191 | 6.0 | 9.0 | 0.00 | 0.00 | 0.00 | 61 | 1014.8 |
| 20260505152533 | 80 | 188 | 6.0 | 9.0 | 0.00 | 0.00 | 0.00 | 62 | 1015.2 |
| 20260505151522 | 80 | 165 | 7.0 | 10.0 | 0.00 | 0.00 | 0.00 | 63 | 1014.9 |
| 20260505150530 | 79 | 173 | 5.0 | 7.0 | 0.00 | 0.00 | 0.00 | 64 | 1015.1 |
| 20260505140522 | 77 | 209 | 6.0 | 11.0 | 0.00 | 0.00 | 0.00 | 68 | 1015.1 |
| 20260505124530 | 71 | 157 | 4.0 | 7.0 | 0.00 | 0.00 | 0.00 | 75 | 1014.6 |
| 20260505123520 | 70 | 152 | 5.0 | 9.0 | 0.00 | 0.00 | 0.00 | 77 | 1014.3 |
| 20260505122527 | 69 | 151 | 4.0 | 5.0 | 0.00 | 0.00 | 0.00 | 79 | 1014.2 |
| 20260505121538 | 68 | 162 | 4.0 | 5.0 | 0.00 | 0.00 | 0.00 | 81 | 1014.1 |
| 20260505120524 | 67 | 151 | 4.0 | 5.0 | 0.00 | 0.00 | 0.00 | 84 | 1014.1 |
| 20260505115533 | 65 | 157 | 2.0 | 6.0 | 0.00 | 0.00 | 0.00 | 88 | 1014.1 |
| 20260505114523 | 62 | 0.0 | 0.0 | 0.00 | 0.00 | 0.00 | 92 | 1014.3 | |
| 20260505113530 | 61 | 0.0 | 0.0 | 0.00 | 0.00 | 0.00 | 91 | 1014.2 | |
| 20260505112520 | 60 | 0.0 | 0.0 | 0.00 | 0.00 | 0.00 | 91 | 1014.1 | |
| 20260505111528 | 60 | 0.0 | 0.0 | 0.00 | 0.00 | 0.00 | 91 | 1014.1 | |
| 20260505110536 | 60 | 0.0 | 0.0 | 0.00 | 0.00 | 0.00 | 91 | 1014.2 | |
| 20260505101520 | 61 | 0.0 | 0.0 | 0.00 | 0.00 | 0.00 | 90 | 1014.4 | |
| 20260505100528 | 61 | 0.0 | 0.0 | 0.00 | 0.00 | 0.00 | 90 | 1014.3 | |
| 20260505095536 | 61 | 0.0 | 0.0 | 0.00 | 0.00 | 0.00 | 90 | 1014.3 | |
| 20260505094525 | 61 | 0.0 | 0.0 | 0.00 | 0.00 | 0.00 | 90 | 1014.3 | |
| 20260505093533 | 62 | 0.0 | 0.0 | 0.00 | 0.00 | 0.00 | 90 | 1014.3 | |
| 20260505092523 | 62 | 0.0 | 0.0 | 0.00 | 0.00 | 0.00 | 89 | 1014.1 |